Probability
0 0 0 0 0 0 0 0 0 0 0 0 0 0 0 0 0 0 0 0 0 0 0 0 0 0 0 0 0 0 0 0 0 0 0 0 0 0 0 0 0 0 0 0
0 0 0 0 0 0 0 0 0 0 0 0 0 0 0 0 0 0 0 0 0 0 0 0 0 0 0 0 0 0 0 0 0 0 0 0 0 0 0 0 0 0 0 0
0 0 0 0 0 0 0 0 0 0 0 0 0 0 0 0 0 0 0 0 0 0 0 0 0 0 0 0 0 0 0 0 0 0 0 0 0 0 0 0 0 0 0 0
0 0 0 0 0 0 0 0 0 0 0 0 0 0 0 0 0 0 0 0 0 0 0 0 0 0 0 0 0 0 0 0 0 0 0 0 0 0 0 0 0 0 0 0
0 0 0 0 0 0 0 0 0 0 0 0 0 0 0 0 0 0 0 0 0 0 0 0 0 0 0 0 0 0 0 0 0 0 0 0 0 0 0 0 0 0 0 0
0 0 0 0 0 0 0 0 0 0 0 0 0 0 0 0 0 0 0 0 0 0 0 0 0 0 0 0 0 0 0 0 0 0 0 0 0 0 0 0 0 0 0 0
0 0 0 0 0 0 0 0 0 0 0 0 0 0 0 0 0 0 0 0 0 0 0 0 0 0 0 0 0 0 0 0 0 0 0 0 0 0 0 0 0 0 0 0
0 0 0 0 0 0 0 0 0 0 0 0 0 0 0 0 0 0 0 0 0 0 0 0 0 0 0 0 0 0 0 0 0 0 0 0 0 0 0 0 0 0 0 0
0 0 0 0 0 0 0 0 0 0 0 0 0 0 0 0 0 0 0 0 0 0 0 0 0 0 0 0 0 0 0 0 0 0 0 0 0 0 0 0 0 0 0 0
0 0 0 0 0 0 0 0 0 0 0 0 0 0 0 0 0 0 0 0 0 0 0 0 0 0 0 0 0 0 0 0 0 0 0 0 0 0 0 0 0 0 0 0
0 0 0 0 0 0 0 0 0 0 0 0 0 0 0 0 0 0 0 0 0 0 0 0 0 0 0 0 0 0 0 0 0 0 0 0 0 0 0 0 0 0 0 0
0 0 0 0 0 0 0 0 0 0 0 0 0 0 0 0 0 0 0 0 0 0 0 0 0 0 0 0 0 0 0 0 0 0 0 0 0 0 0 0 0 0 0 0
0 0 0 0 0 0 0 0 0 0 0 0 0 0 0 0 0 0 0 0 0 0 0 0 0 0 0 0 0 0 0 0 0 0 0 0 0 0 0 0 0 0 0 0
0 0 0 0 0 0 0 0 0 0 0 0 0 0 0 0 0 0 0 0 0 0 0 0 0 0 0 0 0 0 0 0 0 0 0 0 0 0 0 0 0 0 0 0
0 0 0 0 0 0 0 0 0 0 0 0 0 0 0 0 0 0 0 0 0 0 0 0 0 0 0 0 0 0 0 0 0 0 0 0 0 0 0 0 0 0 0 0
0 0 0 0 0 0 0 0 0 0 0 0 0 0 0 0 0 0 0 0 0 0 0 0 0 0 0 0 0 0 0 0 0 0 0 0 0 0 0 0 0 0 0 0
0 0 0 0 0 0 0 0 0 0 0 0 0 0 0 0 0 0 0 0 0 0 0 0 0 0 0 0 0 0 0 0 0 0 0 0 0 0 0 0 0 0 0 0
0 0 0 0 0 0 0 0 0 0 0 0 0 0 0 0 0 0 0 0 0 0 0 0 0 0 0 0 0 0 0 0 0 0 0 0 0 0 0 0 0 0 0 0
0 0 0 0 0 0 0 0 0 0 0 0 0 0 0 0 0 0 0 0 0 0 0 0 0 0 0 0 0 0 0 0 0 0 0 0 0 0 0 0 0 0 0 0
0 0 0 0 0 0 0 0 0 0 0 0 0 0 0 0 0 0 0 0 0 0 0 0 0 0 0 0 0 0 0 0 0 0 0 0 0 0 0 0 0 0 0 0
0 0 0 0 0 0 0 0 0 0 0 0 0 0 0 0 0 0 0 0 0 0 0 0 0 0 0 0 0 0 0 0 0 0 0 0 0 0 0 0 0 0 0 0
0 0 0 0 0 0 0 0 0 0 0 0 0 0 0 0 0 0 0 0 0 0 0 0 0 0 0 0 0 0 0 0 0 0 0 0 0 0 0 0 0 0 0 0
0 0 0 0 0 0 0 0 0 0 0 0 0 0 0 0 0 0 0 0 0 0 0 0 0 0 0 0 0 0 0 0 0 0 0 0 0 0 0 0 0 0 0 0
0 0 0 0 0 0 0 0 0 0 0 0 0 0 0 0 0 0 0 0 0 0 0 0 0 0 0 0 0 0 0 0 0 0 0 0 0 0 0 0 0 0 0 0
0 0 0 0 0 0 0 0 0 0 0 0 0 0 0 0 0 0 0 0 0 0 0 0 0 0 0 0 0 0 0 0 0 0 0 0 0 0 0 0 0 0 0 0
0 0 0 0 0 0 0 0 0 0 0 0 0 0 0 0 0 0 0 0 0 0 0 0 0 0 0 0 0 0 0 0 0 0 0 0 0 0 0 0 0 0 0 0
0 0 0 0 0 0 0 0 0 0 0 0 0 0 0 0 0 0 0 0 0 0 0 0 0 0 0 0 0 0 0 0 0 0 0 0 0 0 0 0 0 0 0 0
Wind_Speed
9 8 4 7 12 10 14 13 14 18 19 27 23 16 13 11 10 11 12 11 10 9 9 8 8 8 10 12 12 13 14 17 20 17 15 15 15 15 14 14 14 13 12 11
6 6 5 8 16 17 16 13 15 20 23 22 15 9 9 10 9 10 11 11 11 10 10 10 9 9 9 11 11 12 16 18 16 14 15 16 16 14 14 14 13 12 12 11
6 3 4 10 15 13 9 10 11 13 14 9 10 11 10 10 9 10 11 11 11 11 10 10 10 9 9 10 9 13 16 15 14 15 16 16 15 15 15 15 13 13 12 11
3 1 10 12 5 7 9 11 11 11 12 11 11 11 11 10 8 9 10 10 11 10 10 10 9 8 8 7 8 11 14 14 13 14 15 14 15 16 15 13 13 12 12 12
3 5 12 11 10 6 7 10 8 9 11 10 7 7 7 6 4 7 9 11 11 11 11 10 10 8 7 7 7 10 13 14 13 13 14 14 16 16 14 12 13 12 10 11
4 6 11 11 4 2 1 8 4 4 5 6 5 7 8 8 9 12 12 11 10 10 9 10 10 6 7 8 8 12 14 13 12 13 15 16 16 14 12 12 12 11 10 11
8 9 13 11 2 2 3 8 3 2 5 6 5 8 11 12 12 12 12 12 11 10 9 10 9 6 8 10 12 12 9 9 10 13 14 14 13 11 11 11 11 11 11 10
7 7 14 6 6 7 9 5 5 7 7 8 10 11 11 11 11 11 11 11 10 9 11 10 8 7 10 13 11 8 7 9 11 12 12 11 11 11 11 12 11 10 9 9
13 13 7 4 8 7 5 9 10 8 9 10 10 10 11 9 10 10 10 10 9 9 12 12 8 6 11 13 9 7 8 9 9 10 10 10 11 12 11 11 10 10 9 9
9 12 11 10 10 11 11 12 11 9 9 8 8 9 10 10 9 10 10 10 9 10 12 14 11 9 11 12 9 8 9 8 7 8 9 9 9 10 11 11 11 10 10 9
13 11 10 9 9 10 9 8 8 8 6 5 6 8 9 9 10 10 10 9 9 10 12 15 13 12 11 9 8 8 9 8 7 8 8 9 10 10 12 12 13 13 11 10
18 12 13 13 8 8 8 7 7 6 6 7 6 8 9 9 9 9 11 10 11 11 12 14 13 14 12 8 7 8 8 7 6 6 7 8 8 8 17 16 20 22 17 13
17 13 12 11 6 4 4 5 5 5 6 8 8 8 9 9 8 10 11 12 12 13 14 14 14 14 12 9 7 8 9 8 6 7 7 8 9 9 8 13 19 21 21 19
9 8 8 6 4 4 4 4 4 5 6 7 8 8 9 10 10 12 13 13 13 13 14 13 13 14 12 9 8 9 9 10 9 7 7 8 9 9 8 9 9 10 15 20
5 4 5 3 3 3 4 4 6 7 8 9 8 9 10 12 13 14 14 13 13 13 14 13 14 15 11 8 9 9 8 7 6 6 7 7 8 8 8 9 8 7 5 10
4 3 1 1 3 4 5 5 7 9 10 10 11 12 12 12 14 14 14 12 12 15 15 14 15 14 12 9 9 8 7 13 11 6 6 7 8 8 8 8 8 8 8 8
1 1 2 3 4 6 6 7 8 10 10 12 13 13 13 13 14 14 14 12 12 14 14 14 15 13 11 9 9 7 7 8 13 8 6 7 7 8 8 8 8 8 7 10
2 2 2 4 5 8 9 9 10 11 12 13 13 12 13 14 15 16 15 14 14 14 14 13 12 11 10 9 8 7 6 6 6 6 6 7 7 7 7 8 8 8 6 8
1 2 4 6 7 8 9 11 12 11 12 13 12 13 13 14 14 15 14 13 15 16 13 10 18 15 11 11 11 6 6 7 6 6 6 9 9 7 7 8 8 7 7 7
4 5 6 8 8 9 11 12 12 12 12 12 12 13 14 14 14 14 13 13 12 11 12 15 14 11 11 11 13 6 6 7 6 6 6 6 7 7 8 8 8 7 7 7
7 7 8 9 10 10 11 12 12 13 13 12 12 14 15 15 14 12 13 14 13 11 12 17 12 10 10 11 13 6 6 6 6 6 6 6 7 7 7 8 8 7 7 7
7 8 9 10 11 12 11 10 12 13 13 13 13 13 14 14 14 12 11 11 13 17 13 10 10 14 16 16 7 6 6 6 5 5 6 6 6 7 7 7 7 7 7 6
8 9 10 11 12 12 12 12 12 12 12 13 14 14 14 13 11 12 13 10 10 17 14 10 16 22 23 12 6 6 6 5 5 5 5 6 6 6 6 7 7 6 6 6
10 11 11 11 10 11 13 13 11 10 12 13 13 13 13 12 11 9 10 16 20 21 13 15 22 22 19 8 6 6 5 5 4 4 5 5 5 5 5 6 6 5 6 7
10 11 10 10 11 10 11 11 11 11 11 10 12 12 10 9 10 12 12 13 18 19 12 14 20 19 11 7 6 5 4 4 4 4 5 5 5 5 5 5 6 6 6 6
10 9 9 10 10 10 9 9 9 10 10 11 11 10 9 9 10 11 10 11 14 17 13 9 9 10 7 6 6 5 4 4 4 4 5 5 5 5 5 6 7 6 5 5
9 8 7 8 8 8 8 8 9 10 10 11 13 12 11 11 11 11 12 11 10 10 9 8 7 7 6 6 5 4 3 2 3 3 4 4 5 5 5 6 5 5 5 5
Wind_Direction
256 271 266 246 251 224 211 220 236 258 263 274 284 296 300 297 300 304 303 303 299 292 289 281 263 244 233 232 220 210 212 217 221 217 213 210 207 203 199 198 200 200 203 210
275 267 247 256 258 251 241 235 242 262 272 272 284 297 294 294 299 301 301 301 300 296 291 284 272 259 243 235 220 209 217 223 221 213 210 209 207 201 198 199 198 196 202 208
268 291 324 269 246 233 223 215 210 237 253 287 309 307 301 301 303 297 295 295 294 292 287 283 278 265 254 243 218 212 221 225 219 213 212 209 204 200 200 198 195 198 203 207
270 345 241 244 246 219 231 246 227 245 269 285 282 287 284 275 276 290 294 295 295 294 293 290 286 280 267 251 225 221 226 227 220 215 215 207 202 203 201 195 196 199 203 207
203 250 271 286 274 214 213 272 242 236 264 280 292 307 292 271 263 280 290 291 290 289 290 291 292 291 280 264 239 232 234 231 221 212 212 207 207 205 199 194 196 199 200 204
189 222 250 250 255 155 140 282 270 212 272 294 332 330 296 300 313 308 304 300 299 301 300 299 300 300 282 271 252 244 240 234 221 212 211 210 209 204 196 194 197 194 201 204
215 235 260 258 252 137 213 253 298 282 293 297 277 257 274 296 302 298 299 301 303 305 303 298 302 300 283 276 264 259 250 235 220 213 213 212 206 198 191 192 191 193 201 206
194 217 256 238 156 198 231 284 302 297 289 285 280 281 289 296 299 303 305 306 310 311 306 304 303 294 285 281 277 271 250 235 223 214 209 207 200 195 190 188 190 193 199 209
201 222 248 198 213 244 277 286 287 285 284 288 290 294 300 301 304 305 304 305 308 308 305 305 300 284 282 287 288 275 256 244 230 215 207 201 196 193 188 188 192 194 196 207
254 259 263 268 267 270 270 270 277 279 284 291 293 298 303 304 304 304 303 306 308 311 309 307 307 294 279 286 286 271 261 251 229 213 208 202 199 196 194 193 195 196 197 203
261 272 282 261 260 273 283 289 297 302 302 305 302 301 300 301 301 301 302 302 303 301 299 299 302 300 294 288 281 271 264 253 232 216 207 204 206 206 203 205 200 195 197 195
265 272 275 286 289 290 294 301 307 313 315 312 304 297 299 299 297 298 299 301 301 299 298 301 303 301 299 291 275 267 268 254 232 217 209 206 208 216 223 217 218 215 207 199
262 275 276 289 299 306 301 307 311 308 301 301 302 298 299 296 294 297 299 300 299 300 300 301 301 300 299 293 277 262 260 257 236 220 212 209 207 208 213 220 222 219 213 209
269 283 284 291 298 315 314 309 307 302 295 288 288 293 296 294 295 299 300 298 298 299 298 298 298 297 298 293 280 268 261 256 246 227 215 211 210 209 206 202 202 210 214 211
282 276 268 285 306 319 319 318 320 313 307 304 298 298 299 300 299 298 298 298 298 297 298 299 300 299 301 294 283 275 266 258 247 231 218 213 208 208 208 206 204 197 186 206
288 305 318 319 317 317 319 316 308 301 301 300 300 298 296 293 292 293 294 296 299 300 301 301 297 296 298 292 286 280 269 265 258 236 221 214 209 207 207 205 201 196 194 193
208 316 329 318 306 301 296 290 284 287 291 292 292 294 296 297 297 297 298 297 293 291 291 290 289 291 292 286 281 280 272 267 263 250 222 213 209 207 205 202 201 200 198 192
172 213 252 267 277 287 291 290 287 288 287 287 292 295 296 298 298 298 299 301 300 297 292 286 285 290 289 288 283 278 271 259 247 241 226 215 211 205 202 203 202 199 187 195
251 269 276 278 277 277 280 285 286 285 287 292 294 294 293 292 291 293 297 299 300 300 297 292 302 307 298 293 294 276 268 261 249 238 223 221 218 204 201 201 202 196 184 184
278 276 278 279 279 277 280 283 286 289 291 293 294 294 295 294 294 296 297 293 285 281 287 295 299 296 294 292 295 278 265 256 245 233 221 214 209 203 200 199 198 193 187 188
278 279 281 282 284 282 282 287 293 294 295 294 291 291 292 294 295 295 296 297 292 288 293 300 301 296 296 295 294 277 260 249 237 227 221 215 209 203 197 194 195 194 190 189
277 279 282 286 290 293 291 292 291 291 293 294 292 291 294 297 298 295 283 280 288 298 303 297 296 298 304 305 294 279 263 246 233 223 217 210 205 201 196 192 192 191 189 186
280 282 284 286 289 292 294 291 289 289 290 291 294 295 294 293 294 295 298 293 294 302 305 296 300 306 310 310 295 283 269 249 233 221 213 205 200 197 193 190 188 186 182 180
285 285 284 285 289 292 291 290 289 287 286 287 286 284 286 292 292 284 282 294 301 304 302 299 306 311 314 307 294 283 272 252 231 217 205 198 192 188 185 183 180 178 176 175
279 283 285 287 288 286 285 289 293 292 289 288 288 286 283 279 284 293 294 294 299 304 302 304 309 313 311 300 295 286 273 247 224 203 195 190 186 182 179 177 175 173 173 176
278 280 279 275 276 281 284 287 288 291 294 296 296 295 293 291 288 290 293 294 294 300 303 302 304 307 303 300 297 288 273 255 234 206 187 182 178 174 173 174 170 169 168 169
277 277 280 282 280 275 276 280 284 288 290 292 295 297 296 295 295 296 297 297 299 300 300 300 300 299 299 297 294 288 265 228 200 184 177 175 170 168 169 166 162 158 158 160